Year,Month,Day,Hour,Minute,Value (Times are PST for temperature in C)
2020,04,12,00,00,5.40
2020,04,12,00,01,5.40
2020,04,12,00,02,5.40
2020,04,12,00,03,5.40
2020,04,12,00,04,5.40
2020,04,12,00,05,5.40
2020,04,12,00,06,5.40
2020,04,12,00,07,5.30
2020,04,12,00,08,5.30
2020,04,12,00,09,5.30
2020,04,12,00,10,5.30
2020,04,12,00,11,5.20
2020,04,12,00,12,5.20
2020,04,12,00,13,5.20
2020,04,12,00,14,5.20
2020,04,12,00,15,5.10
2020,04,12,00,16,5.10
2020,04,12,00,17,5.10
2020,04,12,00,18,5.10
2020,04,12,00,19,5.10
2020,04,12,00,20,5.10
2020,04,12,00,21,5.10
2020,04,12,00,22,5.10
2020,04,12,00,23,5.00
2020,04,12,00,24,5.00
2020,04,12,00,25,5.00
2020,04,12,00,26,5.00
2020,04,12,00,27,4.90
2020,04,12,00,28,4.90
2020,04,12,00,29,4.90
2020,04,12,00,30,4.90
2020,04,12,00,31,4.90
2020,04,12,00,32,4.90
2020,04,12,00,33,4.90
2020,04,12,00,34,4.90
2020,04,12,00,35,4.80
2020,04,12,00,36,4.80
2020,04,12,00,37,4.80
2020,04,12,00,38,4.70
2020,04,12,00,39,4.70
2020,04,12,00,40,4.70
2020,04,12,00,41,4.70
2020,04,12,00,42,4.70
2020,04,12,00,43,4.60
2020,04,12,00,44,4.60
2020,04,12,00,45,4.60
2020,04,12,00,46,4.60
2020,04,12,00,47,4.60
2020,04,12,00,48,4.50
2020,04,12,00,49,4.50
2020,04,12,00,50,4.50
2020,04,12,00,51,4.40
2020,04,12,00,52,4.40
2020,04,12,00,53,4.30
2020,04,12,00,54,4.30
2020,04,12,00,55,4.20
2020,04,12,00,56,4.20
2020,04,12,00,57,4.20
2020,04,12,00,58,4.10
2020,04,12,00,59,4.10
2020,04,12,01,00,4.00
2020,04,12,01,01,3.90
2020,04,12,01,02,3.90
2020,04,12,01,03,3.90
2020,04,12,01,04,3.90
2020,04,12,01,05,3.90
2020,04,12,01,06,3.90
2020,04,12,01,07,3.90
2020,04,12,01,08,3.90
2020,04,12,01,09,3.90
2020,04,12,01,10,4.00
2020,04,12,01,11,4.00
2020,04,12,01,12,4.00
2020,04,12,01,13,4.10
2020,04,12,01,14,4.10
2020,04,12,01,15,4.10
2020,04,12,01,16,4.10
2020,04,12,01,17,4.10
2020,04,12,01,18,4.10
2020,04,12,01,19,4.10
2020,04,12,01,20,4.10
2020,04,12,01,21,4.00
2020,04,12,01,22,4.00
2020,04,12,01,23,4.00
2020,04,12,01,24,3.90
2020,04,12,01,25,3.90
2020,04,12,01,26,3.90
2020,04,12,01,27,3.80
2020,04,12,01,28,3.80
2020,04,12,01,29,3.80
2020,04,12,01,30,3.80
2020,04,12,01,31,3.70
2020,04,12,01,32,3.70
2020,04,12,01,33,3.70
2020,04,12,01,34,3.60
2020,04,12,01,35,3.60
2020,04,12,01,36,3.60
2020,04,12,01,37,3.70
2020,04,12,01,38,3.70
2020,04,12,01,39,3.70
2020,04,12,01,40,3.80
2020,04,12,01,41,3.80
2020,04,12,01,42,3.80
2020,04,12,01,43,3.80
2020,04,12,01,44,3.80
2020,04,12,01,45,3.80
2020,04,12,01,46,3.80
2020,04,12,01,47,3.80
2020,04,12,01,48,3.80
2020,04,12,01,49,3.80
2020,04,12,01,50,3.70
2020,04,12,01,51,3.70
2020,04,12,01,52,3.70
2020,04,12,01,53,3.70
2020,04,12,01,54,3.60
2020,04,12,01,55,3.60
2020,04,12,01,56,3.60
2020,04,12,01,57,3.60
2020,04,12,01,58,3.50
2020,04,12,01,59,3.50
2020,04,12,02,00,3.40
2020,04,12,02,01,3.40
2020,04,12,02,02,3.30
2020,04,12,02,03,3.30
2020,04,12,02,04,3.30
2020,04,12,02,05,3.30
2020,04,12,02,06,3.30
2020,04,12,02,07,3.30
2020,04,12,02,08,3.30
2020,04,12,02,09,3.20
2020,04,12,02,10,3.30
2020,04,12,02,11,3.20
2020,04,12,02,12,3.20
2020,04,12,02,13,3.20
2020,04,12,02,14,3.20
2020,04,12,02,15,3.20
2020,04,12,02,16,3.20
2020,04,12,02,17,3.20
2020,04,12,02,18,3.20
2020,04,12,02,19,3.10
2020,04,12,02,20,3.10
2020,04,12,02,21,3.10
2020,04,12,02,22,3.10
2020,04,12,02,23,3.10
2020,04,12,02,24,3.10
2020,04,12,02,25,3.10
2020,04,12,02,26,3.20
2020,04,12,02,27,3.20
2020,04,12,02,28,3.20
2020,04,12,02,29,3.20
2020,04,12,02,30,3.20
2020,04,12,02,31,3.20
2020,04,12,02,32,3.20
2020,04,12,02,33,3.20
2020,04,12,02,34,3.20
2020,04,12,02,35,3.20
2020,04,12,02,36,3.20
2020,04,12,02,37,3.20
2020,04,12,02,38,3.20
2020,04,12,02,39,3.10
2020,04,12,02,40,3.10
2020,04,12,02,41,3.00
2020,04,12,02,42,2.90
2020,04,12,02,43,2.80
2020,04,12,02,44,2.80
2020,04,12,02,45,2.80
2020,04,12,02,46,2.80
2020,04,12,02,47,2.80
2020,04,12,02,48,2.70
2020,04,12,02,49,2.70
2020,04,12,02,50,2.70
2020,04,12,02,51,2.70
2020,04,12,02,52,2.70
2020,04,12,02,53,2.70
2020,04,12,02,54,2.70
2020,04,12,02,55,2.70
2020,04,12,02,56,2.60
2020,04,12,02,57,2.60
2020,04,12,02,58,2.60
2020,04,12,02,59,2.60
2020,04,12,03,00,2.60
2020,04,12,03,01,2.60
2020,04,12,03,02,2.60
2020,04,12,03,03,2.60
2020,04,12,03,04,2.50
2020,04,12,03,05,2.50
2020,04,12,03,06,2.50
2020,04,12,03,07,2.50
2020,04,12,03,08,2.50
2020,04,12,03,09,2.50
2020,04,12,03,10,2.50
2020,04,12,03,11,2.50
2020,04,12,03,12,2.50
2020,04,12,03,13,2.50
2020,04,12,03,14,2.50
2020,04,12,03,15,2.50
2020,04,12,03,16,2.50
2020,04,12,03,17,2.40
2020,04,12,03,18,2.40
2020,04,12,03,19,2.40
2020,04,12,03,20,2.40
2020,04,12,03,21,2.40
2020,04,12,03,22,2.40
2020,04,12,03,23,2.30
2020,04,12,03,24,2.30
2020,04,12,03,25,2.30
2020,04,12,03,26,2.30
2020,04,12,03,27,2.30
2020,04,12,03,28,2.20
2020,04,12,03,29,2.20
2020,04,12,03,30,2.20
2020,04,12,03,31,2.20
2020,04,12,03,32,2.20
2020,04,12,03,33,2.20
2020,04,12,03,34,2.10
2020,04,12,03,35,2.10
2020,04,12,03,36,2.10
2020,04,12,03,37,2.10
2020,04,12,03,38,2.00
2020,04,12,03,39,2.00
2020,04,12,03,40,2.00
2020,04,12,03,41,1.90
2020,04,12,03,42,1.90
2020,04,12,03,43,1.90
2020,04,12,03,44,1.90
2020,04,12,03,45,1.80
2020,04,12,03,46,1.80
2020,04,12,03,47,1.80
2020,04,12,03,48,1.80
2020,04,12,03,49,1.80
2020,04,12,03,50,1.80
2020,04,12,03,51,1.80
2020,04,12,03,52,1.80
2020,04,12,03,53,1.80
2020,04,12,03,54,1.80
2020,04,12,03,55,1.80
2020,04,12,03,56,1.80
2020,04,12,03,57,1.80
2020,04,12,03,58,1.70
2020,04,12,03,59,1.70
2020,04,12,04,00,1.70
2020,04,12,04,01,1.70
2020,04,12,04,02,1.70
2020,04,12,04,03,1.70
2020,04,12,04,04,1.70
2020,04,12,04,05,1.70
2020,04,12,04,06,1.70
2020,04,12,04,07,1.70
2020,04,12,04,08,1.70
2020,04,12,04,09,1.70
2020,04,12,04,10,1.70
2020,04,12,04,11,1.70
2020,04,12,04,12,1.70
2020,04,12,04,13,1.70
2020,04,12,04,14,1.70
2020,04,12,04,15,1.60
2020,04,12,04,16,1.60
2020,04,12,04,17,1.60
2020,04,12,04,18,1.60
2020,04,12,04,19,1.60
2020,04,12,04,20,1.60
2020,04,12,04,21,1.60
2020,04,12,04,22,1.60
2020,04,12,04,23,1.70
2020,04,12,04,24,1.70
2020,04,12,04,25,1.70
2020,04,12,04,26,1.70
2020,04,12,04,27,1.70
2020,04,12,04,28,1.70
2020,04,12,04,29,1.70
2020,04,12,04,30,1.70
2020,04,12,04,31,1.70
2020,04,12,04,32,1.70
2020,04,12,04,33,1.70
2020,04,12,04,34,1.70
2020,04,12,04,35,1.60
2020,04,12,04,36,1.60
2020,04,12,04,37,1.60
2020,04,12,04,38,1.60
2020,04,12,04,39,1.60
2020,04,12,04,40,1.50
2020,04,12,04,41,1.50
2020,04,12,04,42,1.50
2020,04,12,04,43,1.40
2020,04,12,04,44,1.40
2020,04,12,04,45,1.40
2020,04,12,04,46,1.40
2020,04,12,04,47,1.40
2020,04,12,04,48,1.40
2020,04,12,04,49,1.40
2020,04,12,04,50,1.40
2020,04,12,04,51,1.30
2020,04,12,04,52,1.30
2020,04,12,04,53,1.30
2020,04,12,04,54,1.30
2020,04,12,04,55,1.30
2020,04,12,04,56,1.30
2020,04,12,04,57,1.30
2020,04,12,04,58,1.30
2020,04,12,04,59,1.20
2020,04,12,05,00,1.20
2020,04,12,05,01,1.30
2020,04,12,05,02,1.30
2020,04,12,05,03,1.30
2020,04,12,05,04,1.30
2020,04,12,05,05,1.30
2020,04,12,05,06,1.30
2020,04,12,05,07,1.30
2020,04,12,05,08,1.30
2020,04,12,05,09,1.30
2020,04,12,05,10,1.20
2020,04,12,05,11,1.20
2020,04,12,05,12,1.20
2020,04,12,05,13,1.20
2020,04,12,05,14,1.20
2020,04,12,05,15,1.20
2020,04,12,05,16,1.20
2020,04,12,05,17,1.20
2020,04,12,05,18,1.20
2020,04,12,05,19,1.20
2020,04,12,05,20,1.20
2020,04,12,05,21,1.10
2020,04,12,05,22,1.10
2020,04,12,05,23,1.10
2020,04,12,05,24,1.10
2020,04,12,05,25,1.10
2020,04,12,05,26,1.10
2020,04,12,05,27,1.10
2020,04,12,05,28,1.10
2020,04,12,05,29,1.10
2020,04,12,05,30,1.10
2020,04,12,05,31,1.10
2020,04,12,05,32,1.10
2020,04,12,05,33,1.10
2020,04,12,05,34,1.10
2020,04,12,05,35,1.10
2020,04,12,05,36,1.00
2020,04,12,05,37,1.00
2020,04,12,05,38,1.00
2020,04,12,05,39,1.00
2020,04,12,05,40,1.00
2020,04,12,05,41,1.00
2020,04,12,05,42,0.90
2020,04,12,05,43,0.90
2020,04,12,05,44,0.90
2020,04,12,05,45,0.90
2020,04,12,05,46,0.90
2020,04,12,05,47,0.80
2020,04,12,05,48,0.80
2020,04,12,05,49,0.80
2020,04,12,05,50,0.80
2020,04,12,05,51,0.80
2020,04,12,05,52,0.80
2020,04,12,05,53,0.80
2020,04,12,05,54,0.80
2020,04,12,05,55,0.80
2020,04,12,05,56,0.80
2020,04,12,05,57,0.80
2020,04,12,05,58,0.80
2020,04,12,05,59,0.80
2020,04,12,06,00,0.70
2020,04,12,06,01,0.70
2020,04,12,06,02,0.70
2020,04,12,06,03,0.70
2020,04,12,06,04,0.70
2020,04,12,06,05,0.70
2020,04,12,06,06,0.60
2020,04,12,06,07,0.60
2020,04,12,06,08,0.60
2020,04,12,06,09,0.60
2020,04,12,06,10,0.60
2020,04,12,06,11,0.60
2020,04,12,06,12,0.60
2020,04,12,06,13,0.60
2020,04,12,06,14,0.50
2020,04,12,06,15,0.50
2020,04,12,06,16,0.40
2020,04,12,06,17,0.40
2020,04,12,06,18,0.40
2020,04,12,06,19,0.40
2020,04,12,06,20,0.40
2020,04,12,06,21,0.40
2020,04,12,06,22,0.40
2020,04,12,06,23,0.40
2020,04,12,06,24,0.40
2020,04,12,06,25,0.50
2020,04,12,06,26,0.50
2020,04,12,06,27,0.50
2020,04,12,06,28,0.50
2020,04,12,06,29,0.50
2020,04,12,06,30,0.50
2020,04,12,06,31,0.50
2020,04,12,06,32,0.50
2020,04,12,06,33,0.50
2020,04,12,06,34,0.40
2020,04,12,06,35,0.40
2020,04,12,06,36,0.40
2020,04,12,06,37,0.40
2020,04,12,06,38,0.40
2020,04,12,06,39,0.40
2020,04,12,06,40,0.40
2020,04,12,06,41,0.40
2020,04,12,06,42,0.40
2020,04,12,06,43,0.40
2020,04,12,06,44,0.40
2020,04,12,06,45,0.30
2020,04,12,06,46,0.30
2020,04,12,06,47,0.30
2020,04,12,06,48,0.30
2020,04,12,06,49,0.30
2020,04,12,06,50,0.30
2020,04,12,06,51,0.30
2020,04,12,06,52,0.30
2020,04,12,06,53,0.30
2020,04,12,06,54,0.30
2020,04,12,06,55,0.30
2020,04,12,06,56,0.30
2020,04,12,06,57,0.30
2020,04,12,06,58,0.40
2020,04,12,06,59,0.40
2020,04,12,07,00,0.40
2020,04,12,07,01,0.40
2020,04,12,07,02,0.40
2020,04,12,07,03,0.40
2020,04,12,07,04,0.40
2020,04,12,07,05,0.40
2020,04,12,07,06,0.50
2020,04,12,07,07,0.50
2020,04,12,07,08,0.50
2020,04,12,07,09,0.60
2020,04,12,07,10,0.60
2020,04,12,07,11,0.60
2020,04,12,07,12,0.60
2020,04,12,07,13,0.60
2020,04,12,07,14,0.60
2020,04,12,07,15,0.70
2020,04,12,07,16,0.70
2020,04,12,07,17,0.70
2020,04,12,07,18,0.70
2020,04,12,07,19,0.80
2020,04,12,07,20,0.80
2020,04,12,07,21,0.80
2020,04,12,07,22,0.90
2020,04,12,07,23,1.00
2020,04,12,07,24,1.10
2020,04,12,07,25,1.20
2020,04,12,07,26,1.20
2020,04,12,07,27,1.30
2020,04,12,07,28,1.40
2020,04,12,07,29,1.50
2020,04,12,07,30,1.60
2020,04,12,07,31,1.70
2020,04,12,07,32,1.80
2020,04,12,07,33,1.90
2020,04,12,07,34,2.00
2020,04,12,07,35,2.10
2020,04,12,07,36,2.20
2020,04,12,07,37,2.30
2020,04,12,07,38,2.40
2020,04,12,07,39,2.50
2020,04,12,07,40,2.70
2020,04,12,07,41,2.80
2020,04,12,07,42,3.00
2020,04,12,07,43,3.10
2020,04,12,07,44,3.20
2020,04,12,07,45,3.30
2020,04,12,07,46,3.50
2020,04,12,07,47,3.60
2020,04,12,07,48,3.80
2020,04,12,07,49,3.90
2020,04,12,07,50,4.00
2020,04,12,07,51,4.00
2020,04,12,07,52,4.20
2020,04,12,07,53,4.30
2020,04,12,07,54,4.50
2020,04,12,07,55,4.60
2020,04,12,07,56,4.80
2020,04,12,07,57,4.90
2020,04,12,07,58,5.00
2020,04,12,07,59,5.10
2020,04,12,08,00,5.20
2020,04,12,08,01,5.30
2020,04,12,08,02,5.50
2020,04,12,08,03,5.60
2020,04,12,08,04,5.70
2020,04,12,08,05,5.80
2020,04,12,08,06,6.00
2020,04,12,08,07,6.20
2020,04,12,08,08,6.30
2020,04,12,08,09,6.40
2020,04,12,08,10,6.50
2020,04,12,08,11,6.60
2020,04,12,08,12,6.70
2020,04,12,08,13,6.80
2020,04,12,08,14,6.90
2020,04,12,08,15,7.00
2020,04,12,08,16,7.10
2020,04,12,08,17,7.20
2020,04,12,08,18,7.30
2020,04,12,08,19,7.40
2020,04,12,08,20,7.60
2020,04,12,08,21,7.60
2020,04,12,08,22,7.70
2020,04,12,08,23,7.80
2020,04,12,08,24,8.00
2020,04,12,08,25,8.10
2020,04,12,08,26,8.20
2020,04,12,08,27,8.30
2020,04,12,08,28,8.40
2020,04,12,08,29,8.50
2020,04,12,08,30,8.60
2020,04,12,08,31,8.70
2020,04,12,08,32,8.80
2020,04,12,08,33,8.90
2020,04,12,08,34,9.00
2020,04,12,08,35,9.10
2020,04,12,08,36,9.20
2020,04,12,08,37,9.30
2020,04,12,08,38,9.40
2020,04,12,08,39,9.50
2020,04,12,08,40,9.60
2020,04,12,08,41,9.70
2020,04,12,08,42,9.80
2020,04,12,08,43,9.90
2020,04,12,08,44,10.00
2020,04,12,08,45,10.10
2020,04,12,08,46,10.20
2020,04,12,08,47,10.30
2020,04,12,08,48,10.30
2020,04,12,08,49,10.50
2020,04,12,08,50,10.60
2020,04,12,08,51,10.60
2020,04,12,08,52,10.80
2020,04,12,08,53,10.80
2020,04,12,08,54,10.90
2020,04,12,08,55,11.00
2020,04,12,08,56,11.10
2020,04,12,08,57,11.10
2020,04,12,08,58,11.20
2020,04,12,08,59,11.30
2020,04,12,09,00,11.30
2020,04,12,09,01,11.40
2020,04,12,09,02,11.50
2020,04,12,09,03,11.50
2020,04,12,09,04,11.60
2020,04,12,09,05,11.70
2020,04,12,09,06,11.70
2020,04,12,09,07,11.80
2020,04,12,09,08,11.80
2020,04,12,09,09,11.80
2020,04,12,09,10,11.80
2020,04,12,09,11,11.80
2020,04,12,09,12,11.80
2020,04,12,09,13,11.80
2020,04,12,09,14,11.90
2020,04,12,09,15,11.90
2020,04,12,09,16,12.00
2020,04,12,09,17,12.00
2020,04,12,09,18,12.10
2020,04,12,09,19,12.10
2020,04,12,09,20,12.20
2020,04,12,09,21,12.30
2020,04,12,09,22,12.30
2020,04,12,09,23,12.30
2020,04,12,09,24,12.30
2020,04,12,09,25,12.30
2020,04,12,09,26,12.30
2020,04,12,09,27,12.30
2020,04,12,09,28,12.40
2020,04,12,09,29,12.40
2020,04,12,09,30,12.50
2020,04,12,09,31,12.50
2020,04,12,09,32,12.60
2020,04,12,09,33,12.70
2020,04,12,09,34,12.70
2020,04,12,09,35,12.70
2020,04,12,09,36,12.80
2020,04,12,09,37,12.80
2020,04,12,09,38,12.80
2020,04,12,09,39,12.80
2020,04,12,09,40,12.80
2020,04,12,09,41,12.90
2020,04,12,09,42,12.90
2020,04,12,09,43,13.00
2020,04,12,09,44,13.00
2020,04,12,09,45,13.00
2020,04,12,09,46,13.10
2020,04,12,09,47,13.00
2020,04,12,09,48,13.00
2020,04,12,09,49,12.90
2020,04,12,09,50,12.90
2020,04,12,09,51,12.80
2020,04,12,09,52,12.80
2020,04,12,09,53,12.80
2020,04,12,09,54,12.80
2020,04,12,09,55,12.90
2020,04,12,09,56,12.90
2020,04,12,09,57,12.90
2020,04,12,09,58,13.00
2020,04,12,09,59,13.00
2020,04,12,10,00,13.10
2020,04,12,10,01,13.10
2020,04,12,10,02,13.10
2020,04,12,10,03,13.20
2020,04,12,10,04,13.20
2020,04,12,10,05,13.20
2020,04,12,10,06,13.10
2020,04,12,10,07,13.10
2020,04,12,10,08,13.10
2020,04,12,10,09,13.10
2020,04,12,10,10,13.10
2020,04,12,10,11,13.10
2020,04,12,10,12,13.20
2020,04,12,10,13,13.20
2020,04,12,10,14,13.20
2020,04,12,10,15,13.20
2020,04,12,10,16,13.20
2020,04,12,10,17,13.10
2020,04,12,10,18,13.20
2020,04,12,10,19,13.20
2020,04,12,10,20,13.20
2020,04,12,10,21,13.10
2020,04,12,10,22,13.10
2020,04,12,10,23,13.00
2020,04,12,10,24,12.90
2020,04,12,10,25,12.90
2020,04,12,10,26,12.90
2020,04,12,10,27,12.80
2020,04,12,10,28,12.80
2020,04,12,10,29,12.80
2020,04,12,10,30,12.70
2020,04,12,10,31,12.70
2020,04,12,10,32,12.60
2020,04,12,10,33,12.60
2020,04,12,10,34,12.50
2020,04,12,10,35,12.50
2020,04,12,10,36,12.50
2020,04,12,10,37,12.50
2020,04,12,10,38,12.60
2020,04,12,10,39,12.60
2020,04,12,10,40,12.60
2020,04,12,10,41,12.60
2020,04,12,10,42,12.60
2020,04,12,10,43,12.60
2020,04,12,10,44,12.60
2020,04,12,10,45,12.60
2020,04,12,10,46,12.60
2020,04,12,10,47,12.60
2020,04,12,10,48,12.60
2020,04,12,10,49,12.60
2020,04,12,10,50,12.60
2020,04,12,10,51,12.70
2020,04,12,10,52,12.80
2020,04,12,10,53,12.90
2020,04,12,10,54,13.00
2020,04,12,10,55,13.10
2020,04,12,10,56,13.20
2020,04,12,10,57,13.30
2020,04,12,10,58,13.40
2020,04,12,10,59,13.50
2020,04,12,11,00,13.60
2020,04,12,11,01,13.70
2020,04,12,11,02,13.70
2020,04,12,11,03,13.70
2020,04,12,11,04,13.70
2020,04,12,11,05,13.80
2020,04,12,11,06,13.80
2020,04,12,11,07,13.80
2020,04,12,11,08,13.80
2020,04,12,11,09,13.80
2020,04,12,11,10,13.80
2020,04,12,11,11,13.80
2020,04,12,11,12,13.80
2020,04,12,11,13,13.80
2020,04,12,11,14,13.80
2020,04,12,11,15,13.90
2020,04,12,11,16,14.00
2020,04,12,11,17,14.00
2020,04,12,11,18,14.10
2020,04,12,11,19,14.10
2020,04,12,11,20,14.10
2020,04,12,11,21,14.10
2020,04,12,11,22,14.10
2020,04,12,11,23,14.10
2020,04,12,11,24,14.10
2020,04,12,11,25,14.00
2020,04,12,11,26,13.90
2020,04,12,11,27,13.90
2020,04,12,11,28,13.90
2020,04,12,11,29,13.90
2020,04,12,11,30,13.90
2020,04,12,11,31,13.90
2020,04,12,11,32,13.90
2020,04,12,11,33,13.90
2020,04,12,11,34,14.00
2020,04,12,11,35,14.00
2020,04,12,11,36,13.90
2020,04,12,11,37,13.80
2020,04,12,11,38,13.80
2020,04,12,11,39,13.80
2020,04,12,11,40,13.80
2020,04,12,11,41,13.80
2020,04,12,11,42,13.80
2020,04,12,11,43,13.90
2020,04,12,11,44,14.00
2020,04,12,11,45,14.10
2020,04,12,11,46,14.20
2020,04,12,11,47,14.30
2020,04,12,11,48,14.30
2020,04,12,11,49,14.30
2020,04,12,11,50,14.30
2020,04,12,11,51,14.30
2020,04,12,11,52,14.20
2020,04,12,11,53,14.10
2020,04,12,11,54,14.00
2020,04,12,11,55,13.90
2020,04,12,11,56,13.90
2020,04,12,11,57,13.80
2020,04,12,11,58,13.80
2020,04,12,11,59,13.80
2020,04,12,12,00,13.70
2020,04,12,12,01,13.70
2020,04,12,12,02,13.70
2020,04,12,12,03,13.70
2020,04,12,12,04,13.70
2020,04,12,12,05,13.70
2020,04,12,12,06,13.70
2020,04,12,12,07,13.70
2020,04,12,12,08,13.70
2020,04,12,12,09,13.70
2020,04,12,12,10,13.70
2020,04,12,12,11,13.60
2020,04,12,12,12,13.60
2020,04,12,12,13,13.60
2020,04,12,12,14,13.50
2020,04,12,12,15,13.50
2020,04,12,12,16,13.50
2020,04,12,12,17,13.50
2020,04,12,12,18,13.50
2020,04,12,12,19,13.60
2020,04,12,12,20,13.60
2020,04,12,12,21,13.60
2020,04,12,12,22,13.60
2020,04,12,12,23,13.60
2020,04,12,12,24,13.60
2020,04,12,12,25,13.70
2020,04,12,12,26,13.70
2020,04,12,12,27,13.70
2020,04,12,12,28,13.80
2020,04,12,12,29,13.80
2020,04,12,12,30,13.90
2020,04,12,12,31,13.90
2020,04,12,12,32,14.00
2020,04,12,12,33,14.10
2020,04,12,12,34,14.10
2020,04,12,12,35,14.20
2020,04,12,12,36,14.20
2020,04,12,12,37,14.30
2020,04,12,12,38,14.30
2020,04,12,12,39,14.30
2020,04,12,12,40,14.20
2020,04,12,12,41,14.20
2020,04,12,12,42,14.20
2020,04,12,12,43,14.20
2020,04,12,12,44,14.20
2020,04,12,12,45,14.10
2020,04,12,12,46,14.10
2020,04,12,12,47,14.10
2020,04,12,12,48,14.10
2020,04,12,12,49,14.10
2020,04,12,12,50,14.10
2020,04,12,12,51,14.10
2020,04,12,12,52,14.10
2020,04,12,12,53,14.10
2020,04,12,12,54,14.10
2020,04,12,12,55,14.10
2020,04,12,12,56,14.10
2020,04,12,12,57,14.10
2020,04,12,12,58,14.00
2020,04,12,12,59,14.00
2020,04,12,13,00,14.10
2020,04,12,13,01,14.10
2020,04,12,13,02,14.00
2020,04,12,13,03,14.00
2020,04,12,13,04,13.90
2020,04,12,13,05,13.90
2020,04,12,13,06,13.90
2020,04,12,13,07,13.90
2020,04,12,13,08,13.90
2020,04,12,13,09,13.90
2020,04,12,13,10,13.90
2020,04,12,13,11,14.00
2020,04,12,13,12,14.00
2020,04,12,13,13,14.10
2020,04,12,13,14,14.10
2020,04,12,13,15,14.00
2020,04,12,13,16,14.00
2020,04,12,13,17,13.90
2020,04,12,13,18,13.90
2020,04,12,13,19,13.90
2020,04,12,13,20,13.90
2020,04,12,13,21,13.90
2020,04,12,13,22,13.90
2020,04,12,13,23,14.00
2020,04,12,13,24,14.00
2020,04,12,13,25,14.10
2020,04,12,13,26,14.10
2020,04,12,13,27,14.20
2020,04,12,13,28,14.20
2020,04,12,13,29,14.30
2020,04,12,13,30,14.40
2020,04,12,13,31,14.50
2020,04,12,13,32,14.60
2020,04,12,13,33,14.70
2020,04,12,13,34,14.80
2020,04,12,13,35,14.90
2020,04,12,13,36,14.90
2020,04,12,13,37,15.00
2020,04,12,13,38,14.90
2020,04,12,13,39,14.90
2020,04,12,13,40,15.00
2020,04,12,13,41,15.00
2020,04,12,13,42,15.00
2020,04,12,13,43,14.90
2020,04,12,13,44,14.90
2020,04,12,13,45,14.80
2020,04,12,13,46,14.70
2020,04,12,13,47,14.70
2020,04,12,13,48,14.80
2020,04,12,13,49,14.80
2020,04,12,13,50,14.80
2020,04,12,13,51,14.80
2020,04,12,13,52,14.70
2020,04,12,13,53,14.70
2020,04,12,13,54,14.70
2020,04,12,13,55,14.70
2020,04,12,13,56,14.80
2020,04,12,13,57,14.80
2020,04,12,13,58,14.70
2020,04,12,13,59,14.70
2020,04,12,14,00,14.70
2020,04,12,14,01,14.70
2020,04,12,14,02,14.80
2020,04,12,14,03,14.80
2020,04,12,14,04,14.80
2020,04,12,14,05,14.90
2020,04,12,14,06,14.90
2020,04,12,14,07,14.90
2020,04,12,14,08,14.90
2020,04,12,14,09,14.90
2020,04,12,14,10,15.00
2020,04,12,14,11,15.00
2020,04,12,14,12,15.10
2020,04,12,14,13,15.10
2020,04,12,14,14,15.10
2020,04,12,14,15,15.10
2020,04,12,14,16,15.10
2020,04,12,14,17,15.10
2020,04,12,14,18,15.10
2020,04,12,14,19,15.10
2020,04,12,14,20,15.10
2020,04,12,14,21,15.10
2020,04,12,14,22,15.10
2020,04,12,14,23,15.10
2020,04,12,14,24,15.10
2020,04,12,14,25,15.10
2020,04,12,14,26,15.10
2020,04,12,14,27,15.10
2020,04,12,14,28,15.10
2020,04,12,14,29,15.10
2020,04,12,14,30,15.10
2020,04,12,14,31,15.20
2020,04,12,14,32,15.20
2020,04,12,14,33,15.20
2020,04,12,14,34,15.20
2020,04,12,14,35,15.20
2020,04,12,14,36,15.20
2020,04,12,14,37,15.20
2020,04,12,14,38,15.10
2020,04,12,14,39,15.10
2020,04,12,14,40,15.10
2020,04,12,14,41,15.10
2020,04,12,14,42,15.10
2020,04,12,14,43,15.10
2020,04,12,14,44,15.10
2020,04,12,14,45,15.10
2020,04,12,14,46,15.10
2020,04,12,14,47,15.10
2020,04,12,14,48,15.10
2020,04,12,14,49,15.00
2020,04,12,14,50,15.00
2020,04,12,14,51,15.00
2020,04,12,14,52,15.00
2020,04,12,14,53,15.00
2020,04,12,14,54,15.10
2020,04,12,14,55,15.10
2020,04,12,14,56,15.10
2020,04,12,14,57,15.20
2020,04,12,14,58,15.20
2020,04,12,14,59,15.30
2020,04,12,15,00,15.30
2020,04,12,15,01,15.40
2020,04,12,15,02,15.40
2020,04,12,15,03,15.50
2020,04,12,15,04,15.50
2020,04,12,15,05,15.50
2020,04,12,15,06,15.50
2020,04,12,15,07,15.50
2020,04,12,15,08,15.50
2020,04,12,15,09,15.50
2020,04,12,15,10,15.50
2020,04,12,15,11,15.40
2020,04,12,15,12,15.40
2020,04,12,15,13,15.40
2020,04,12,15,14,15.40
2020,04,12,15,15,15.40
2020,04,12,15,16,15.30
2020,04,12,15,17,15.30
2020,04,12,15,18,15.20
2020,04,12,15,19,15.10
2020,04,12,15,20,15.10
2020,04,12,15,21,15.10
2020,04,12,15,22,15.10
2020,04,12,15,23,15.10
2020,04,12,15,24,15.10
2020,04,12,15,25,15.10
2020,04,12,15,26,15.20
2020,04,12,15,27,15.20
2020,04,12,15,28,15.30
2020,04,12,15,29,15.30
2020,04,12,15,30,15.30
2020,04,12,15,31,15.30
2020,04,12,15,32,15.30
2020,04,12,15,33,15.30
2020,04,12,15,34,15.40
2020,04,12,15,35,15.30
2020,04,12,15,36,15.30
2020,04,12,15,37,15.30
2020,04,12,15,38,15.30
2020,04,12,15,39,15.30
2020,04,12,15,40,15.20
2020,04,12,15,41,15.20
2020,04,12,15,42,15.30
2020,04,12,15,43,15.30
2020,04,12,15,44,15.30
2020,04,12,15,45,15.30
2020,04,12,15,46,15.30
2020,04,12,15,47,15.40
2020,04,12,15,48,15.40
2020,04,12,15,49,15.50
2020,04,12,15,50,15.60
2020,04,12,15,51,15.70
2020,04,12,15,52,15.80
2020,04,12,15,53,15.80
2020,04,12,15,54,15.80
2020,04,12,15,55,15.80
2020,04,12,15,56,15.80
2020,04,12,15,57,15.80
2020,04,12,15,58,15.80
2020,04,12,15,59,15.80
2020,04,12,16,00,15.80
2020,04,12,16,01,15.70
2020,04,12,16,02,15.70
2020,04,12,16,03,15.80
2020,04,12,16,04,15.80
2020,04,12,16,05,15.80
2020,04,12,16,06,15.80
2020,04,12,16,07,15.70
2020,04,12,16,08,15.70
2020,04,12,16,09,15.70
2020,04,12,16,10,15.80
2020,04,12,16,11,15.80
2020,04,12,16,12,15.80
2020,04,12,16,13,15.90
2020,04,12,16,14,15.90
2020,04,12,16,15,15.90
2020,04,12,16,16,15.90
2020,04,12,16,17,15.90
2020,04,12,16,18,15.90
2020,04,12,16,19,15.90
2020,04,12,16,20,15.90
2020,04,12,16,21,15.90
2020,04,12,16,22,15.90
2020,04,12,16,23,15.90
2020,04,12,16,24,15.90
2020,04,12,16,25,15.90
2020,04,12,16,26,15.90
2020,04,12,16,27,16.00
2020,04,12,16,28,16.10
2020,04,12,16,29,16.10
2020,04,12,16,30,16.20
2020,04,12,16,31,16.20
2020,04,12,16,32,16.30
2020,04,12,16,33,16.30
2020,04,12,16,34,16.40
2020,04,12,16,35,16.50
2020,04,12,16,36,16.60
2020,04,12,16,37,16.60
2020,04,12,16,38,16.60
2020,04,12,16,39,16.60
2020,04,12,16,40,16.60
2020,04,12,16,41,16.50
2020,04,12,16,42,16.40
2020,04,12,16,43,16.40
2020,04,12,16,44,16.40
2020,04,12,16,45,16.40
2020,04,12,16,46,16.40
2020,04,12,16,47,16.50
2020,04,12,16,48,16.50
2020,04,12,16,49,16.50
2020,04,12,16,50,16.50
2020,04,12,16,51,16.50
2020,04,12,16,52,16.40
2020,04,12,16,53,16.40
2020,04,12,16,54,16.40
2020,04,12,16,55,16.40
2020,04,12,16,56,16.30
2020,04,12,16,57,16.30
2020,04,12,16,58,16.30
2020,04,12,16,59,16.30
2020,04,12,17,00,16.20
2020,04,12,17,01,16.20
2020,04,12,17,02,16.20
2020,04,12,17,03,16.20
2020,04,12,17,04,16.20
2020,04,12,17,05,16.20
2020,04,12,17,06,16.20
2020,04,12,17,07,16.30
2020,04,12,17,08,16.30
2020,04,12,17,09,16.30
2020,04,12,17,10,16.20
2020,04,12,17,11,16.20
2020,04,12,17,12,16.10
2020,04,12,17,13,16.10
2020,04,12,17,14,16.10
2020,04,12,17,15,16.00
2020,04,12,17,16,16.00
2020,04,12,17,17,16.00
2020,04,12,17,18,15.90
2020,04,12,17,19,15.80
2020,04,12,17,20,15.80
2020,04,12,17,21,15.80
2020,04,12,17,22,15.70
2020,04,12,17,23,15.60
2020,04,12,17,24,15.50
2020,04,12,17,25,15.40
2020,04,12,17,26,15.30
2020,04,12,17,27,15.20
2020,04,12,17,28,15.20
2020,04,12,17,29,15.20
2020,04,12,17,30,15.10
2020,04,12,17,31,15.00
2020,04,12,17,32,14.90
2020,04,12,17,33,14.80
2020,04,12,17,34,14.60
2020,04,12,17,35,14.40
2020,04,12,17,36,14.30
2020,04,12,17,37,14.10
2020,04,12,17,38,14.00
2020,04,12,17,39,13.90
2020,04,12,17,40,13.80
2020,04,12,17,41,13.70
2020,04,12,17,42,13.60